Showing default

PUNCH-WFI03, 63180

Orbit data source: Space-Track

PUNCH-WFI03, 63180 is an American payload satellite in SSO that was launched on Wed, 12 Mar 2025 UTC via an FALCON 9 launch vehicle from the Air Force Western Test Range (AFWTR). Payload-class satellites include a variety of spacecraft equipped with specific instruments for various scientific and technological missions. These include communications satellites like Starlink; space stations such as the ISS; scientific satellites like the Hubble; Earth observation satellites from companies like Planet Labs, Umbra, and HawkEye 360; GPS; miniature CubeSats for education and research; and military/defense satellites.

Loading next visibility...
Identifier
63180, 2025-047C
Orbit
SSO
Country
Flag of USUS
Related business
Manufacturer
SWRI
Mission
Operational Civil Astronomy
Bus & Motor
PUNCH, Unknown motor
Mass
64 kg wet, 64 kg dry
Launch date (UTC)
2025-03-12 (11 months ago)
Launch vehicle
FALCON 9
Launch site
Air Force Western Test Range (AFWTR)
Object type
Payload
Rocket body
Debris
Shape & HBR
Box + 1 Pan, 1.9 m
Radar Cross Section
0.625 m², Medium (>0.1 m² and < 1m²)

Expand to show TLE details & history
Last TLE update: 6 hours ago

TLE from 6 hours ago
0 PUNCH-WFI03
1 63180U 25047C   26035.45772789  .00001041  00000-0  16527-3 0  9991
2 63180  97.9513 222.9527 0009091 230.6142 129.4262 14.74161060 48503
Epoch: 2026-02-04T10:59Z
TLE epoch observation values (Epoch: 2026-02-04T10:59:07.689Z)
Latitude
-0.00004°
Longitude
-76.45336°
Altitude
654.888 km
Speed
7.528 km/s
True Right ascension
14h 51m 48s
True Declination
0° 00' 00"
Sunlit
Object was in daylight at epoch
Visualization orbit readout
Latitude
Unknown
Longitude
Unknown
Altitude
Unknown
Speed
Unknown
Apparent Right ascension
Unknown
Apparent Declination
Unknown
Sunlit
N/A
Visualization observer readout
Local Sidereal Time
18:44:29
Azimuth
Unknown
Elevation
Unknown
Doppler factor
Unknown
Orbital elements
Apogee altitude
651.251 km
Perigee altitude
638.482 km
Semi-major axis
7,023.004 km
Eccentricity
0.00091
Inclination
97.9513°
RAAN
222.9527°
Arg. of periapsis
230.6142°
True anomaly
129.50661°
Mean anomaly
129.4262°
Eccentric anomaly
129.46641°
Mean motion
3.68773 °/min
Orbital period
97.62 mins
BSTAR
0.00016527
Loading maneuver chart data...
Computing Atmospheric mass density...
Loading historical data...
Loading historical data...
Loading historical data...
Loading historical data...
Loading historical data...
Loading historical data...
Loading historical data...
Other satellites on launch #47 in the year 2025 (2025-03-12 UTC)

Documentation

Showing up to 5 results
|